Weather History for KALO - June, 2013

Change the Weather History Date:

Wednesday, June 19, 2013

  Actual Average Record
Temperature  
Mean Temperature 72 °F 71 °F  
Max Temperature 83 °F 82 °F 98 °F (1953)
Min Temperature 60 °F 60 °F 43 °F (1970)
Degree Days  
Heating Degree Days 0 0  
Month to date heating degree days 38 23  
Since 1 June heating degree days 38 23  
Since 1 July heating degree days 7271 7027  
Cooling Degree Days 7 7  
Month to date cooling degree days 66 92  
Year to date cooling degree days 119 148  
Since 1 June cooling degree days 66 92  
Growing Degree Days 21 (Base 50)    
Moisture  
Dew Point 56 °F    
Average Humidity 61    
Maximum Humidity 78    
Minimum Humidity 43    
Precipitation  
Precipitation 0.00 in 0.17 in 2.25 in (1928)
Month to date precipitation 2.30 3.10  
Year to date precipitation 25.88 15.22  
Snow  
Snow 0.00 in 0.00 in - ()
Month to date snowfall 0.0 0.0  
Since 1 June snowfall 0.0 0.0  
Since 1 July snowfall 50.0 35.3  
Snow Depth 0.00 in    
Sea Level Pressure  
Sea Level Pressure 30.04 in    
Wind  
Wind Speed 9 mph (SSE)    
Max Wind Speed 16 mph    
Max Gust Speed 30 mph    
Visibility 10 miles    
Events      
T = Trace of Precipitation, MM = Missing Value Source: NWS Daily Summary

Daily Weather History Graph

Daily Weather History Graph

Search for Another Location

Airport or City:

Trip Planner

Search our weather history database for the weather conditions in past years. The results will help you decide how hot, cold, wet, or windy it might be!

Date:

Astronomy

Jun. 19, 2013 Rise Set
Actual Time 5:31 AM CDT 8:50 PM CDT
Civil Twilight 4:56 AM CDT 9:25 PM CDT
Nautical Twilight 4:11 AM CDT 10:10 PM CDT
Astronomical Twilight 3:15 AM CDT 11:06 PM CDT
Moon 4:40 PM CDT (6/19) 2:21 AM CDT (6/19)
Length of Visible Light 16h 28m
Length of Day
15h 18m
Waxing Gibbous, 80% of the Moon is Illuminated
Jun 19
Waxing Gibbous
Jun 23
Full
Jun 29
Last Quarter
Jul 8
New
Jul 15
First Quarter

Hourly Weather History & Observations

Time (CDT) Temp. Heat Index Dew Point Humidity Pressure Visibility Wind Dir Wind Speed Gust Speed Precip Events Conditions
12:54 AM 64.9 °F - 55.9 °F 73% 30.04 in 10.0 mi SE 6.9 mph - N/A   Clear
1:54 AM 64.0 °F - 55.0 °F 73% 30.04 in 10.0 mi ESE 6.9 mph - N/A   Partly Cloudy
2:54 AM 63.0 °F - 55.0 °F 75% 30.04 in 10.0 mi SE 8.1 mph - N/A   Clear
3:54 AM 62.1 °F - 55.0 °F 78% 30.04 in 10.0 mi ESE 9.2 mph - N/A   Clear
4:54 AM 62.1 °F - 55.0 °F 78% 30.06 in 10.0 mi ESE 9.2 mph - N/A   Mostly Cloudy
5:54 AM 61.0 °F - 53.1 °F 75% 30.07 in 10.0 mi ESE 10.4 mph - N/A   Partly Cloudy
6:54 AM 60.1 °F - 53.1 °F 78% 30.09 in 10.0 mi ESE 9.2 mph - N/A   Clear
7:54 AM 64.0 °F - 52.0 °F 65% 30.10 in 10.0 mi SE 9.2 mph - N/A   Clear
8:54 AM 66.0 °F - 53.1 °F 63% 30.10 in 10.0 mi ESE 9.2 mph - N/A   Clear
9:54 AM 70.0 °F - 53.1 °F 55% 30.08 in 10.0 mi SSE 9.2 mph 21.9 mph N/A   Clear
10:54 AM 72.0 °F - 54.0 °F 53% 30.07 in 10.0 mi SSE 11.5 mph - N/A   Clear
11:54 AM 75.9 °F - 57.0 °F 52% 30.05 in 10.0 mi SSE 9.2 mph - N/A   Clear
12:54 PM 79.0 °F - 59.0 °F 50% 30.04 in 10.0 mi SSE 13.8 mph - N/A   Clear
1:54 PM 80.1 °F 80.7 °F 59.0 °F 48% 30.03 in 10.0 mi South 10.4 mph 17.3 mph N/A   Scattered Clouds
2:54 PM 80.1 °F 80.6 °F 57.9 °F 47% 30.01 in 10.0 mi South 9.2 mph - N/A   Scattered Clouds
3:54 PM 82.0 °F 82.0 °F 57.9 °F 44% 30.00 in 10.0 mi South 12.7 mph - N/A   Scattered Clouds
4:54 PM 82.9 °F 82.4 °F 57.0 °F 41% 29.99 in 10.0 mi SSE 10.4 mph 19.6 mph N/A   Clear
5:54 PM 82.9 °F 82.4 °F 57.0 °F 41% 29.99 in 10.0 mi South 8.1 mph - N/A   Scattered Clouds
6:54 PM 80.1 °F 80.6 °F 57.9 °F 47% 29.98 in 10.0 mi South 6.9 mph - N/A   Clear
7:54 PM 79.0 °F - 57.0 °F 47% 29.98 in 10.0 mi South 11.5 mph - N/A   Clear
8:54 PM 77.0 °F - 57.0 °F 50% 29.99 in 10.0 mi South 8.1 mph - N/A   Clear
9:54 PM 73.0 °F - 57.9 °F 59% 30.01 in 10.0 mi SSE 5.8 mph - N/A   Clear
10:54 PM 72.0 °F - 57.9 °F 61% 30.02 in 10.0 mi SSE 6.9 mph - N/A   Clear
11:54 PM 71.1 °F - 57.9 °F 63% 30.02 in 10.0 mi SSE 6.9 mph - N/A   Clear